Find Starlink 30799

NORAD ID: 58121 Int'l Des: 2023-162 Owner: SPXS Country: US Constellation: starlink operational
LEOCIRCULAR

Current View

Loading 3D Globe...

About Starlink 30799

Description loading...

Upcoming Passes

Passes for default location (London). Set your location on the main map for personalized predictions.

Altitude History

Loading altitude history...

Two-Line Element Set

1 58121U 23162D 26146.07596743 .00001875 00000-0 77648-4 0 9998
2 58121 43.0057 55.3321 0001227 267.0483 93.0229 15.27585687144142
Epoch: May 26, 2026 • Age: 10 hours

Current Status

Altitude 486.7 km
Velocity 7.63 km/s
Sub-Earth Point 41.81°N, 67.87°E
Launch Date Oct 22, 2023
Age 2.5 years
Type internet

Technical Details

Classification Payload
Mass 730.00 kg
Dry Mass 700.00 kg
Total Mass 730.00 kg
Length 0.30 m
Diameter 4.10 m
Span 29.00 m
Shape Box + pan
Manufacturer SPXS
Bus Type Starlink V2M
Phase Status In Orbit
Owner/State SPXS/US

Most Searched